ATLAS CENTAUR 2 DEB, 2886

Orbit data source: Space-Track

ATLAS CENTAUR 2 DEB, 2886 is space debris in LEO originally from a launch on Wed, 27 Nov 1963 UTC launched from the Air Force Eastern Test Range (AFETR). Debris objects in space refer to the collection of defunct objects orbiting the Earth. Examples of debris include non-operational satellites, rocket bodies, and fragments generated from explosions, collisions, or faulty payload assembly.

Loading next visibility...
Identifier
2886, 1963-047K
Orbit
LEO
Last TLE update
9 hours ago
Origin
Manufacturer
Unknown
Mission
Spacecraft
Bus & Motor
Unknown
Mass
Unknown
Launch date (UTC)
1963-11-27 (62 years ago)
Launch vehicle
Unknown
Launch site
Air Force Eastern Test Range (AFETR)
Object type
Payload
Rocket body
Debris
Shape & HBR
Unknown
Radar Cross Section
Small (<0.1 m²)

Expand to show TLE details & history

TLE from 9 hours ago
0 ATLAS CENTAUR 2 DEB
1 02886U 63047K   25188.92308554  .00000213  00000-0  10725-3 0  9998
2 02886  29.8713  72.6825 0643472  80.0322 287.2208 13.29877091830352
Epoch: 2025-07-07T22:09Z
TLE epoch observation values (Epoch: 2025-07-07T22:09:14.59Z)
Latitude
-0.00004°
Longitude
174.24618°
Altitude
1,031.595 km
Speed
7.393 km/s
True Right ascension
04h 50m 43s
True Declination
0° 00' 00"
Sunlit
Object was in daylight at epoch
Visualization orbit readout
Latitude
-4.8399°
Longitude
163.98548°
Altitude
1,137.15 km
Speed
7.291 km/s
Apparent Right ascension
05h 20m 55s
Apparent Declination
-22° 18' 18"
Sunlit
Object is in daylight
Visualization observer readout
Local Sidereal Time
19:12:24
Azimuth
61.619° ENE
Elevation
-60.553°
Doppler factor
1
Orbital elements
Apogee altitude
1,635.405 km
Perigee altitude
666.456 km
Semi-major axis
7,529.068 km
Eccentricity
0.06435
Inclination
29.8713°
RAAN
72.6825°
Arg. of periapsis
80.0322°
True anomaly
Unknown
Mean anomaly
287.2208°
Eccentric anomaly
Unknown
Mean motion
3.32224 °/min
Orbital period
108.36 mins
BSTAR
0.00010725
Loading maneuver chart data...
Loading SW <> Apogee altitude chart data...

ATLAS CENTAUR 2 DEB Visibility forecast

Observer location: undefined°, undefined°

Span
Click to sort rows by Start time (UTC) header in descending order
Start Az.
Max El. time (UTC)
Max El. Az.
Max El.
End time (UTC)
End Az.
4 mins2025-07-08 20:01:54.522Z191.111° SSW2025-07-08 20:03:54.522Z164.898° S15.175°2025-07-08 20:05:54.522Z137.297° SSE
5 mins2025-07-08 21:55:54.522Z214.418° SW2025-07-08 21:57:54.522Z180.2° SSW22.133°2025-07-08 22:00:54.522Z131.371° SE
6 mins2025-07-08 23:49:54.522Z225.962° WSW2025-07-08 23:51:54.522Z195.338° SSW19.262°2025-07-08 23:55:54.522Z142.491° SSE
|